Terminal Aerodrome Forecast
Issued by NWS Quad Cities IA IL

Home | Current Version | Previous Version | Text Only | Print | Product List | Glossary On
Versions: 1 2 3 4 5 6 7 8 9 10 11 12 13 14 15 16 17 18 19 20 21 22 23 24
000
FTUS43 KDVN 031058 AAB
TAFMLI
TAF AMD
KMLI 031058Z 0311/0406 23007KT 5SM TSRA BR SCT050CB OVC120
     FM031130 21006KT P6SM VCTS SCT050CB BKN120
     FM031500 20012G22KT P6SM FEW080 BKN150
     FM040100 19007KT P6SM FEW050 SCT250=

USA.gov is the U.S. government's official web portal to all federal, state and local government web resources and services.